ECHOSTAR 21

导读

ECHOSTAR 21是美国EchoStar Corporation运营的一颗地球静止轨道高通量通信卫星,属于Echostar移动通信卫星系列,于北京时间2017年6月8日发射升空。该卫星采用先进高通量技术,主要面向卫星通信、广播电视与高速数据传输服务,可覆盖指定区域,提供企业通信、互联网接入等服务,助力偏远区域网络覆盖,支撑美国商业通信与信息化服务。

基本信息
目录编号:
42749
目录名称:
ECHOSTAR 21
国际标识:
2017-032A
轨道中心:
EARTH
卫星名称:
ECHOSTAR 21
卫星全名:
--
卫星状态:
在轨 (已飞行3382 天)
发射日期:
2017-06-08 UTC
国别 :
美国 (US)
星等 :
--
该卫星已列入 空间交会检测服务 Space Conjunction Data Service (SCDS) ,当前飞行风险评估等级: 无高风险
轨道信息
数据来源 国际轨道数据 AOE轨道数据
星历时间 2026-09-11T13:27:04+0800
8小时前
查看轨道信息
2026-09-07T04:00:00+0800
4天前
查看轨道信息
半长轴 42165.037km 42164.336km
偏心率 0.0002315 0.0002337
轨道倾角 1.781° 1.780°
近地点辐角 174.847° 177.930°
升交点赤经 1.196° 0.926°
平近点角 266.231° 117.334°
近地点 35777.138km 35776.345km
远地点 35796.662km 35796.053km
周期 1436.112分钟 1436.077分钟
每日圈数 1.002707 1.002732
详细信息
使用方式:
暂无
2D轨道图
3D轨道图
轨道高度分析图
轨道倾角分析图
轨道综合分析图
查看轨道综合分析图
与全量物体交会距离演化趋势
与全量物体交会风险概率演化趋势